Ketchikan, AK

2:44 AM AKST on January 21, 2019 (GMT -0900)
Ketchikan International

Weather History for PAKT - November, 2018

Change the Weather History Date:

Sunday, November 18, 2018

  Actual Average Record
Temperature  
Mean Temperature 47 °F -  
Max Temperature 48 °F 43 °F 54 °F (1949)
Min Temperature 45 °F 33 °F 15 °F (1963)
Degree Days  
Heating Degree Days 18    
Moisture  
Dew Point 46 °F    
Average Humidity 93    
Maximum Humidity 97    
Minimum Humidity 87    
Precipitation  
Precipitation 0.10 in - - ()
Sea Level Pressure  
Sea Level Pressure 30.14 in    
Wind  
Wind Speed 13 mph (SE)    
Max Wind Speed 18 mph    
Max Gust Speed 21 mph    
Visibility 5 miles    
Events Rain    
Averages and records for this station are not official NWS values.
T = Trace of Precipitation, MM = Missing Value Source: NWS Daily Summary

Daily Weather History Graph

Daily Weather History Graph

Search for Another Location

Airport or City:

Astronomy

Nov. 18, 2018 Rise Set
Actual Time 7:26 AM AKST 3:36 PM AKST
Civil Twilight 6:44 AM AKST 4:18 PM AKST
Nautical Twilight 5:59 AM AKST 5:04 PM AKST
Astronomical Twilight 5:16 AM AKST 5:47 PM AKST
Moon 2:33 PM AKST (11/18) 1:22 AM AKST (11/18)
Length of Visible Light 9h 33m
Length of Day
8h 09m
Waxing Gibbous, 80% of the Moon is Illuminated
Nov 18
Waxing Gibbous
Nov 22
Full
Nov 29
Last Quarter
Dec 6
New
Dec 15
First Quarter

Hourly Weather History & Observations

Time (AKST) Temp. Windchill Dew Point Humidity Pressure Visibility Wind Dir Wind Speed Gust Speed Precip Events Conditions
12:35 AM 46.9 °F - 45.0 °F 93% 30.16 in 3.0 mi ESE 17.3 mph - 0.00 in Rain Light Rain
12:53 AM 46.9 °F - 46.0 °F 97% 30.16 in 4.0 mi SE 13.8 mph - 0.00 in   Overcast
1:53 AM 48.0 °F - 46.0 °F 93% 30.17 in 3.0 mi ESE 17.3 mph - 0.01 in Rain Light Rain
2:53 AM 48.0 °F - 46.0 °F 93% 30.16 in 3.0 mi ESE 16.1 mph - 0.00 in Rain Light Rain
3:09 AM 48.0 °F - 46.0 °F 93% 30.16 in 2.5 mi ESE 17.3 mph - 0.01 in Rain Light Rain
3:16 AM 48.0 °F - 46.0 °F 93% 30.15 in 3.0 mi ESE 18.4 mph - 0.02 in Rain Light Rain
3:40 AM 46.9 °F - 46.0 °F 97% 30.16 in 2.5 mi SE 13.8 mph - 0.02 in Rain Light Rain
3:53 AM 46.9 °F - 46.0 °F 97% 30.16 in 2.0 mi SE 11.5 mph - 0.03 in Rain Light Rain
4:39 AM 48.0 °F - 46.0 °F 93% 30.15 in 3.0 mi SE 13.8 mph 20.7 mph 0.04 in Rain Light Rain
4:53 AM 46.9 °F - 46.0 °F 97% 30.16 in 3.0 mi SE 15.0 mph - 0.04 in Rain Light Rain
5:09 AM 48.0 °F - 46.0 °F 93% 30.16 in 2.5 mi SE 12.7 mph - 0.01 in Rain Light Rain
5:44 AM 48.0 °F - 46.0 °F 93% 30.15 in 2.0 mi SE 16.1 mph - 0.02 in Rain Light Rain
5:53 AM 48.0 °F - 46.0 °F 93% 30.16 in 2.5 mi SE 15.0 mph - 0.02 in Rain Light Rain
6:05 AM 48.2 °F - 46.4 °F 93% 30.15 in 2.5 mi SE 13.8 mph - N/A Rain Light Rain
6:53 AM 48.2 °F - 46.4 °F 93% 30.16 in 2.0 mi SE 15.0 mph - N/A Rain Light Rain
7:51 AM 48.2 °F - 46.4 °F 93% 30.16 in 1.8 mi SE 12.7 mph - N/A Rain Light Rain
7:53 AM 48.2 °F - 46.4 °F 93% 30.17 in 2.0 mi SE 11.5 mph - N/A Rain Light Rain
8:04 AM 48.0 °F - 46.0 °F 93% 30.16 in 2.0 mi SE 12.7 mph - 0.00 in Rain Light Rain
8:53 AM 48.2 °F - 46.4 °F 93% 30.17 in 2.0 mi SE 12.7 mph - N/A Rain Light Rain
9:51 AM 48.2 °F - 46.4 °F 93% 30.16 in 1.5 mi SE 12.7 mph - N/A Rain Light Rain
9:53 AM 48.2 °F - 46.4 °F 93% 30.17 in 1.5 mi SE 11.5 mph - N/A Rain Light Rain
10:53 AM 48.2 °F - 46.4 °F 93% 30.17 in 3.0 mi SE 12.7 mph - N/A Rain Light Rain
11:53 AM 48.2 °F - 46.4 °F 93% 30.16 in 1.5 mi SE 12.7 mph - N/A Rain Light Rain
12:51 PM 48.2 °F - 46.4 °F 93% 30.14 in 2.0 mi SE 12.7 mph - N/A Rain Light Rain
12:53 PM 48.2 °F - 46.4 °F 93% 30.15 in 2.0 mi SE 11.5 mph - N/A Rain Light Rain
1:51 PM 48.2 °F - 44.6 °F 87% 30.14 in 3.0 mi SE 13.8 mph - N/A Rain Light Rain
1:53 PM 48.2 °F - 44.6 °F 87% 30.14 in 3.0 mi SE 13.8 mph - N/A Rain Light Rain
2:53 PM 48.2 °F - 46.4 °F 93% 30.13 in 6.0 mi SSE 10.4 mph - N/A   Overcast
3:51 PM 48.2 °F - 44.6 °F 87% 30.12 in 10.0 mi South 8.1 mph - N/A   Overcast
3:53 PM 48.2 °F - 44.6 °F 87% 30.12 in 10.0 mi South 8.1 mph - N/A   Overcast
4:53 PM 48.2 °F - 44.6 °F 87% 30.12 in 10.0 mi Variable 4.6 mph - N/A   Overcast
5:51 PM 46.4 °F 43.5 °F 44.6 °F 93% 30.11 in 10.0 mi ESE 5.8 mph - N/A   Mostly Cloudy
5:53 PM 46.9 °F - 45.0 °F 93% 30.12 in 10.0 mi ESE 5.8 mph - N/A   Mostly Cloudy
6:53 PM 46.9 °F - 45.0 °F 93% 30.11 in 10.0 mi Calm Calm - N/A   Mostly Cloudy
7:51 PM 46.4 °F 45.2 °F 44.6 °F 93% 30.09 in 10.0 mi SSE 3.5 mph - N/A   Overcast
7:53 PM 46.9 °F - 45.0 °F 93% 30.09 in 10.0 mi SSE 4.6 mph - N/A   Overcast
8:53 PM 46.0 °F 42.5 °F 44.1 °F 93% 30.09 in 10.0 mi SE 6.9 mph - N/A   Overcast
9:20 PM 46.0 °F 43.9 °F 44.1 °F 93% 30.08 in 10.0 mi ESE 4.6 mph - N/A   Overcast
9:53 PM 46.0 °F 42.5 °F 44.1 °F 93% 30.08 in 10.0 mi ESE 6.9 mph - N/A   Overcast
10:53 PM 46.0 °F 42.5 °F 44.1 °F 93% 30.07 in 7.0 mi ESE 6.9 mph - N/A   Overcast
11:53 PM 45.0 °F 41.8 °F 44.1 °F 97% 30.06 in 2.5 mi ESE 5.8 mph - N/A   Overcast